Time,TemperatureF,DewpointF,PressureIn,WindDirection,WindDirectionDegrees,WindSpeedMPH,WindSpeedGustMPH,Humidity,HourlyPrecipIn,Conditions,Clouds,dailyrainin,SoftwareType,DateUTC
2013-01-29 00:04:00,32.8,30.0,29.63,ESE,120,6.0,0.0,100,0.00,,,-99.99,,2013-01-29 06:04:00,
2013-01-29 00:34:00,33.1,30.0,29.63,ESE,120,5.0,0.0,100,0.00,,,-99.99,,2013-01-29 06:34:00,
2013-01-29 01:04:00,32.6,30.0,29.58,ENE,70,5.0,0.0,100,0.00,,,-99.99,,2013-01-29 07:04:00,
2013-01-29 01:34:00,32.7,30.0,29.59,NE,40,3.0,0.0,100,0.00,,,-99.99,,2013-01-29 07:34:00,
2013-01-29 02:04:00,32.2,30.0,29.56,NNE,20,3.0,0.0,100,0.00,,,-99.99,,2013-01-29 08:04:00,
2013-01-29 02:34:00,32.0,30.0,29.56,NNE,20,3.0,0.0,100,0.00,,,-99.99,,2013-01-29 08:34:00,
2013-01-29 03:04:00,32.1,30.0,29.55,NNW,340,5.0,0.0,100,0.00,,,-99.99,,2013-01-29 09:04:00,
2013-01-29 03:34:00,31.9,30.0,29.56,NNW,340,4.0,0.0,100,0.00,,,-99.99,,2013-01-29 09:34:00,
2013-01-29 04:04:00,31.7,30.0,29.55,NNW,340,5.0,0.0,100,0.00,,,-99.99,,2013-01-29 10:04:00,
2013-01-29 04:34:00,31.8,30.0,29.54,NNW,330,5.0,0.0,100,0.00,,,-99.99,,2013-01-29 10:34:00,
2013-01-29 05:04:00,32.0,30.0,29.54,NW,320,6.0,0.0,100,0.00,,,-99.99,,2013-01-29 11:04:00,
2013-01-29 05:34:00,31.7,30.0,29.54,NW,320,6.0,0.0,100,0.00,,,-99.99,,2013-01-29 11:34:00,
2013-01-29 06:04:00,31.2,30.0,29.52,North,350,8.0,0.0,100,0.00,,,-99.99,,2013-01-29 12:04:00,
2013-01-29 06:34:00,32.5,30.0,29.52,North,350,8.0,0.0,100,0.00,,,-99.99,,2013-01-29 12:34:00,
2013-01-29 07:04:00,31.8,30.0,29.53,NW,310,4.0,0.0,100,0.00,,,-99.99,,2013-01-29 13:04:00,
2013-01-29 07:34:00,32.1,30.0,29.56,West,280,4.0,0.0,100,0.00,,,-99.99,,2013-01-29 13:34:00,
2013-01-29 08:04:00,32.9,30.0,29.56,WNW,300,4.0,0.0,100,0.00,,,-99.99,,2013-01-29 14:04:00,
2013-01-29 08:34:00,32.6,30.0,29.56,WNW,300,4.0,0.0,100,0.00,,,-99.99,,2013-01-29 14:34:00,
2013-01-29 09:04:00,32.9,32.0,29.58,NW,310,11.0,0.0,93,0.00,,,-99.99,,2013-01-29 15:04:00,
2013-01-29 09:34:00,33.1,32.0,29.58,NW,310,11.0,0.0,93,0.00,,,-99.99,,2013-01-29 15:34:00,
2013-01-29 10:04:00,33.3,30.0,29.59,NW,320,10.0,0.0,86,0.00,,,-99.99,,2013-01-29 16:04:00,
2013-01-29 10:34:00,34.1,30.0,29.62,NW,310,11.0,0.0,86,0.00,,,-99.99,,2013-01-29 16:34:00,
2013-01-29 11:04:00,33.3,30.0,29.62,NW,320,10.0,0.0,92,0.00,,,-99.99,,2013-01-29 17:04:00,
2013-01-29 11:34:00,34.9,30.0,29.62,NW,320,10.0,0.0,92,0.00,,,-99.99,,2013-01-29 17:34:00,
2013-01-29 12:04:00,35.5,30.0,29.65,NW,310,9.0,0.0,92,0.00,,,-99.99,,2013-01-29 18:04:00,
2013-01-29 12:34:00,35.8,30.0,29.65,NW,310,9.0,0.0,92,0.00,,,-99.99,,2013-01-29 18:34:00,
2013-01-29 13:04:00,36.0,30.0,29.63,NNW,330,8.0,0.0,86,0.00,,,-99.99,,2013-01-29 19:04:00,
2013-01-29 13:34:00,35.6,30.0,29.63,NNW,330,8.0,0.0,86,0.00,,,-99.99,,2013-01-29 19:34:00,
2013-01-29 14:04:00,35.8,30.0,29.61,NNW,330,11.0,0.0,86,0.00,,,-99.99,,2013-01-29 20:04:00,
2013-01-29 14:34:00,35.8,30.0,29.61,NNW,330,11.0,0.0,86,0.00,,,-99.99,,2013-01-29 20:34:00,
2013-01-29 15:04:00,36.3,30.0,29.61,NNW,330,12.0,0.0,86,0.00,,,-99.99,,2013-01-29 21:04:00,
2013-01-29 15:34:00,35.4,30.0,29.61,NNW,330,12.0,0.0,86,0.00,,,-99.99,,2013-01-29 21:34:00,
2013-01-29 16:04:00,35.4,28.0,29.66,WNW,300,9.0,0.0,86,0.00,,,-99.99,,2013-01-29 22:04:00,
2013-01-29 16:34:00,34.5,28.0,29.66,WNW,300,9.0,0.0,86,0.00,,,-99.99,,2013-01-29 22:34:00,
2013-01-29 17:04:00,33.9,28.0,29.65,NNW,330,10.0,0.0,86,0.00,,,-99.99,,2013-01-29 23:04:00,
2013-01-29 17:34:00,33.7,28.0,29.65,NNW,330,10.0,0.0,86,0.00,,,-99.99,,2013-01-29 23:34:00,
2013-01-29 18:04:00,33.6,28.0,29.68,NNW,330,8.0,0.0,92,0.00,,,-99.99,,2013-01-30 00:04:00,
2013-01-29 18:34:00,31.9,28.0,29.68,NNW,330,8.0,0.0,92,0.00,,,-99.99,,2013-01-30 00:34:00,
2013-01-29 19:04:00,30.4,26.0,29.70,North,360,16.0,0.0,86,0.00,,,-99.99,,2013-01-30 01:04:00,
2013-01-29 19:34:00,29.9,26.0,29.70,North,360,16.0,0.0,86,0.00,,,-99.99,,2013-01-30 01:34:00,
2013-01-29 20:04:00,29.4,24.0,29.70,NNW,340,18.0,26.0,92,0.00,,,-99.99,,2013-01-30 02:04:00,
2013-01-29 20:34:00,29.5,24.0,29.70,NNW,340,18.0,26.0,92,0.00,,,-99.99,,2013-01-30 02:34:00,
2013-01-29 21:04:00,29.4,23.0,29.71,North,350,16.0,23.0,86,0.00,,,-99.99,,2013-01-30 03:04:00,
2013-01-29 21:34:00,29.3,23.0,29.71,North,350,16.0,23.0,86,0.00,,,-99.99,,2013-01-30 03:34:00,
2013-01-29 22:04:00,29.4,23.0,29.71,North,350,16.0,23.0,86,0.00,,,-99.99,,2013-01-30 04:04:00,
2013-01-29 22:34:00,29.2,23.0,29.71,North,350,16.0,23.0,86,0.00,,,-99.99,,2013-01-30 04:34:00,
2013-01-29 23:04:00,28.3,23.0,29.70,NNW,340,17.0,24.0,86,0.00,,,-99.99,,2013-01-30 05:04:00,
2013-01-29 23:34:00,27.8,23.0,29.70,NNW,340,17.0,24.0,86,0.00,,,-99.99,,2013-01-30 05:34:00,